Theta_e
322 322 322 322 322 322 322 323 323 323 323 323 324 324 325 325 326 327 329 329 330 331 331 332 332 332 332 332 334 333 331 325 323 321 318 322 328 333 334 332 334 337 332 318 317 315 311 312 312 314 315 314 312 313 317 314 311 311 303 298 294 295 296 299 300 300 302 301 299 300 300 302 301 304 308 310 309 309 311 314 316 321 320 321 322 326 325 322
322 322 322 322 322 322 322 322 322 323 323 323 323 324 324 325 326 326 328 329 330 330 330 331 332 332 332 330 331 332 327 324 320 319 319 328 332 333 334 335 333 336 327 315 314 312 310 309 310 313 312 309 314 311 314 310 312 304 300 299 299 297 302 305 305 303 299 299 300 301 300 303 303 304 306 305 305 308 307 310 314 316 318 321 323 322 320 318
321 321 321 321 321 321 321 321 322 322 322 323 323 323 324 325 326 326 327 328 329 330 330 330 331 331 331 331 329 330 325 319 318 315 323 331 333 333 334 334 335 335 317 315 313 313 311 310 310 312 310 307 311 309 311 309 311 305 302 298 299 302 303 307 307 305 299 298 299 300 300 302 304 304 305 305 304 305 306 310 310 312 313 317 318 319 318 318
320 321 321 321 321 321 321 321 321 322 322 322 323 323 324 324 325 326 327 327 328 329 329 330 331 331 331 331 330 326 322 316 311 318 326 333 333 334 334 333 333 334 319 317 316 315 314 315 312 312 309 307 307 309 306 308 308 306 302 298 299 303 303 306 303 301 298 299 300 300 301 301 303 303 304 302 304 303 304 312 313 313 316 317 318 317 317 316
320 320 320 320 320 320 320 321 321 322 322 322 323 323 323 324 325 326 326 327 328 329 329 330 330 331 330 330 328 324 316 307 308 321 327 333 333 334 334 334 334 328 319 317 316 316 316 314 310 311 308 303 306 306 304 308 309 304 305 307 302 303 303 307 303 297 297 297 301 299 300 301 304 305 302 305 303 302 306 309 314 317 319 318 318 317 317 316
320 320 320 320 320 320 320 320 321 322 322 322 322 323 323 324 325 325 326 326 328 328 328 329 330 330 330 329 325 321 313 295 314 316 330 333 334 334 334 334 334 326 318 314 313 313 313 312 309 307 306 304 302 304 304 308 309 301 303 304 305 306 305 304 298 298 296 297 299 299 301 302 303 302 301 305 305 305 305 310 313 320 321 321 321 319 317 316
320 319 319 320 320 320 320 320 321 321 322 322 322 322 323 323 324 325 325 326 327 327 327 328 329 330 329 328 322 317 310 310 314 317 329 333 334 333 333 334 334 320 316 313 312 311 311 310 308 306 307 305 303 304 305 307 308 305 303 304 305 306 306 306 303 298 295 298 298 298 300 302 300 301 302 302 305 305 301 309 313 321 322 322 319 318 317 317
319 319 319 319 319 320 320 321 321 321 321 322 322 322 322 323 324 325 325 326 327 326 326 327 328 329 328 321 314 310 309 310 316 320 331 333 332 331 332 328 323 316 313 312 311 310 311 308 306 308 306 304 303 305 306 306 306 303 303 305 306 306 307 308 308 298 295 296 297 298 299 300 301 300 301 302 305 304 302 304 312 322 321 321 320 318 318 317
319 319 319 319 319 319 320 320 321 321 321 322 322 322 322 323 323 325 325 325 326 326 325 325 326 328 327 320 312 308 306 319 319 326 329 329 327 327 327 320 317 314 313 312 312 311 311 307 308 310 303 305 308 305 305 304 301 305 306 306 307 306 304 307 302 297 295 297 296 299 295 294 295 298 297 301 303 304 305 308 312 321 320 319 319 319 319 318
319 319 318 318 319 319 320 320 321 320 321 321 322 322 322 323 323 324 325 325 326 326 326 325 325 327 322 313 312 303 316 323 325 325 327 326 325 325 323 320 315 314 312 311 311 310 310 308 310 314 313 312 310 306 306 306 302 307 307 307 307 308 304 298 300 297 296 297 295 297 295 296 297 297 297 298 302 302 309 307 315 319 319 320 320 320 320 319
318 318 318 318 318 319 320 320 320 320 321 321 321 321 322 323 324 324 325 325 325 326 325 325 324 324 316 315 307 303 321 322 323 325 325 324 322 321 319 317 316 314 313 311 310 312 312 311 314 314 313 309 312 307 308 307 310 308 306 305 306 307 306 299 296 297 296 298 295 297 296 295 294 296 298 298 298 302 308 308 313 317 318 319 319 319 320 320
318 318 318 319 318 319 319 319 320 320 320 321 321 321 321 322 323 324 324 325 325 325 325 324 325 323 318 313 308 310 322 319 324 325 325 324 321 321 319 316 316 315 313 309 310 311 312 312 315 311 305 315 306 310 309 309 310 309 307 303 303 305 305 303 297 296 296 298 295 296 296 294 294 297 300 300 297 301 306 309 312 315 317 318 319 319 319 319
318 318 318 318 319 319 319 319 319 320 320 321 321 321 321 321 322 324 324 323 324 324 324 324 323 320 314 304 311 321 318 320 323 324 324 325 321 320 318 317 315 315 315 312 310 310 312 314 314 310 311 313 312 307 311 313 307 310 308 303 301 300 300 305 298 296 296 298 295 299 294 296 297 300 298 300 298 299 301 308 310 312 315 317 318 318 319 319
318 318 318 318 318 318 318 319 319 320 320 320 321 321 321 321 321 322 324 322 323 323 323 323 320 317 309 306 315 320 323 323 325 323 322 321 318 314 316 316 316 316 316 314 311 310 312 313 314 310 310 310 307 313 312 312 308 303 306 302 300 296 297 301 298 294 296 296 295 302 295 298 302 302 299 297 298 299 299 301 309 311 313 315 316 317 317 318
317 317 317 318 318 318 318 319 319 319 320 320 320 321 321 321 321 322 323 322 323 323 322 323 318 313 305 307 319 321 326 324 320 320 322 318 315 312 312 315 315 316 317 316 313 312 313 314 312 308 305 309 309 309 305 309 305 301 301 299 297 299 298 301 298 296 297 297 295 299 292 297 302 301 299 299 298 299 299 299 302 309 311 313 315 317 317 318
317 317 317 317 318 318 318 318 319 319 319 320 320 320 320 321 321 321 323 321 321 322 320 315 312 311 304 299 311 321 317 313 315 322 322 321 316 313 313 313 315 316 317 315 317 317 315 314 308 305 306 307 306 304 302 301 302 303 300 297 298 298 298 298 300 295 302 295 294 297 291 291 295 299 300 299 299 298 299 299 299 303 308 311 313 316 317 317
317 317 317 317 318 318 318 318 318 319 319 319 320 320 320 320 320 320 319 320 318 318 315 308 314 312 297 308 314 310 310 313 321 320 320 321 319 315 313 312 309 312 315 315 316 316 314 311 308 306 306 302 303 303 298 296 296 299 301 297 298 297 296 297 298 297 297 296 292 293 294 298 298 299 297 296 298 296 297 298 299 300 303 307 310 313 315 316
317 317 317 317 317 317 317 318 318 319 319 319 318 317 317 320 321 318 314 314 314 313 306 308 310 302 298 305 300 306 315 314 317 319 320 322 319 316 314 309 308 310 311 309 313 309 311 306 306 301 301 300 302 300 295 291 295 296 297 296 297 298 299 299 298 299 295 295 296 293 292 296 300 301 299 297 296 297 297 298 298 300 301 302 305 309 312 315
317 317 317 317 317 317 317 318 317 318 318 319 319 319 318 316 312 310 308 306 304 299 296 297 299 288 286 297 306 309 312 315 318 318 315 317 317 317 316 314 311 307 303 304 304 307 307 304 304 301 297 298 299 300 298 299 300 299 299 298 299 296 296 298 302 301 298 294 294 293 292 293 296 297 300 300 295 296 297 297 297 298 300 302 303 304 307 311
316 316 316 317 317 317 317 318 318 318 318 314 311 309 306 302 301 299 304 305 302 300 304 302 304 299 298 301 303 309 316 317 312 314 317 318 315 313 311 311 306 307 303 299 302 304 306 298 295 295 299 300 301 302 302 302 300 300 300 299 299 299 299 301 302 301 299 295 294 294 293 294 296 296 298 300 297 294 294 295 297 297 298 301 302 303 303 306
316 316 316 316 316 317 317 317 318 317 317 313 309 303 296 297 293 291 297 300 304 301 301 304 303 299 298 302 303 308 307 307 313 313 315 320 315 311 306 307 303 299 300 303 301 307 305 296 296 299 301 302 302 303 302 302 301 299 299 298 298 299 298 301 300 300 299 297 295 294 293 294 296 297 298 298 296 297 297 296 296 297 297 298 301 303 303 305
316 315 316 316 316 316 317 316 317 317 315 312 306 302 302 303 304 307 303 294 300 302 300 303 305 299 303 304 306 306 305 302 304 309 317 317 312 306 305 304 301 297 301 302 302 300 296 294 298 301 304 304 303 303 303 301 300 300 298 297 296 298 300 299 298 300 299 297 297 292 292 294 296 297 299 297 296 299 300 300 299 298 297 298 298 301 304 303
315 316 316 316 315 316 316 316 316 316 311 307 303 304 302 305 305 308 306 300 297 302 299 298 298 298 297 304 305 306 300 299 300 304 311 315 308 307 305 302 300 300 300 301 296 295 292 296 300 303 303 301 301 302 301 300 301 299 298 296 294 298 297 294 298 295 296 295 290 294 292 294 297 298 297 297 295 297 299 299 299 299 299 299 299 300 302 303
315 315 315 315 315 316 316 316 317 312 308 308 306 305 306 307 308 307 300 288 288 297 299 299 299 298 297 297 304 302 298 297 300 302 309 312 305 309 305 303 300 299 297 300 299 297 295 300 304 303 302 301 299 301 300 299 297 299 299 297 296 296 298 299 296 294 294 295 292 291 291 291 294 294 296 297 295 296 298 296 297 297 299 301 302 301 301 303
315 315 315 315 314 315 314 316 308 306 309 307 306 308 306 308 307 304 297 290 289 289 300 300 300 298 300 306 306 299 299 301 300 303 308 308 307 306 303 307 303 296 299 300 300 298 298 303 304 301 300 300 299 298 299 299 296 297 299 299 299 299 299 298 296 293 291 291 293 293 285 290 293 295 296 298 295 295 297 296 297 298 297 298 298 300 300 301
314 314 315 315 314 314 315 305 305 309 306 302 305 308 306 305 306 302 293 282 278 287 296 288 303 295 305 298 300 300 300 292 300 302 304 305 307 305 306 302 304 295 299 299 298 299 299 303 303 300 299 299 299 298 300 301 296 295 296 302 301 300 299 299 294 293 288 289 292 295 289 288 286 291 295 296 296 296 298 297 298 299 299 299 299 300 300 300
314 314 314 315 314 315 305 299 309 308 299 301 308 309 306 305 307 302 292 279 278 289 287 295 296 293 302 299 300 299 285 288 303 304 303 307 302 309 299 299 302 303 303 302 297 294 301 300 300 301 299 297 297 296 299 301 297 294 302 302 302 300 299 298 296 293 293 293 293 294 294 289 289 293 293 295 294 295 297 297 297 299 300 301 301 300 300 301
314 314 314 314 314 313 306 309 306 303 303 306 309 307 306 305 304 301 287 273 273 293 286 291 295 303 300 300 300 294 292 300 292 299 304 306 304 301 298 296 299 299 302 300 287 300 301 298 299 298 298 297 295 298 301 302 298 298 301 303 301 301 300 299 295 291 292 289 288 290 292 287 287 289 290 292 292 293 295 297 298 300 301 301 301 300 300 301
314 314 314 313 313 313 310 307 306 303 307 309 308 307 306 305 301 290 281 273 288 282 304 289 307 299 297 299 295 295 293 297 290 300 303 306 306 305 296 297 299 301 303 301 294 299 301 301 301 301 298 295 299 301 302 302 297 300 303 302 299 298 296 297 292 291 290 288 286 290 290 286 289 287 291 289 292 294 295 297 299 301 302 303 302 301 299 299
313 313 313 313 312 308 305 307 306 307 308 309 308 306 304 299 290 282 275 269 290 279 291 294 294 290 297 291 292 293 290 292 296 300 301 298 302 303 299 304 298 300 298 301 299 298 301 303 305 302 298 301 301 301 303 303 301 303 303 299 296 293 291 290 289 288 288 285 287 293 290 290 287 289 293 291 293 297 296 297 299 301 302 303 303 303 303 301
313 314 313 312 304 304 305 301 305 308 309 308 306 304 300 293 283 278 271 278 287 286 294 292 288 296 291 289 286 292 291 291 292 296 293 298 295 298 297 298 302 297 296 296 296 297 299 300 300 301 306 302 304 300 303 304 302 302 296 295 296 292 291 289 286 287 285 283 290 293 289 290 284 290 292 298 293 297 297 298 299 299 300 300 301 303 305 304
313 314 313 310 308 307 302 300 306 309 308 307 303 297 293 279 282 274 274 292 279 286 287 287 292 291 290 292 289 289 287 289 292 293 290 290 289 290 291 288 295 286 287 290 289 293 292 296 300 302 305 303 301 299 298 301 300 299 296 297 291 285 288 284 286 283 283 284 286 289 290 288 288 293 288 294 294 294 298 300 301 301 300 299 299 300 302 303
313 313 313 310 308 303 304 307 308 307 307 305 300 296 285 279 272 280 276 280 274 289 286 293 290 290 289 289 287 289 290 284 292 291 292 290 289 289 292 290 293 290 284 291 290 291 292 297 299 300 301 304 303 295 292 293 297 297 294 292 289 284 282 282 284 285 286 288 285 285 292 290 294 295 293 294 295 298 298 299 300 297 298 298 298 298 299 299
313 312 308 309 306 305 306 308 307 307 305 303 296 289 285 276 275 287 278 275 277 288 291 290 291 290 290 285 287 290 284 288 289 288 292 285 287 285 288 291 291 286 285 289 288 289 285 285 293 298 294 303 302 300 299 296 297 297 299 296 291 289 285 282 284 281 283 284 284 285 286 285 289 291 289 296 300 299 298 299 299 298 297 296 295 293 292 294
312 309 306 306 304 306 307 307 307 307 304 298 291 285 278 277 277 277 277 278 283 288 286 293 289 288 286 288 290 290 289 284 290 289 287 286 283 285 286 287 291 290 289 285 290 289 289 289 296 303 300 303 299 303 304 299 296 298 297 299 293 289 288 285 284 280 277 280 282 284 286 287 290 291 293 293 293 293 293 295 295 296 295 293 293 293 294 294
308 302 305 302 303 305 307 306 306 306 301 295 286 281 279 281 275 278 280 286 288 286 287 290 289 285 285 285 288 288 292 286 288 287 285 286 287 286 289 289 289 292 288 286 291 287 288 287 294 300 300 301 301 303 301 303 288 295 297 291 293 298 292 285 284 282 282 281 280 284 285 291 292 296 299 297 291 293 293 294 294 294 294 292 294 295 294 294
299 303 298 301 303 306 306 306 306 304 300 292 285 280 283 279 284 284 289 287 287 290 287 282 283 284 283 282 284 286 288 288 287 287 282 287 285 288 286 288 294 294 294 289 285 292 288 287 296 297 294 301 304 303 303 303 301 298 291 294 295 298 295 291 285 283 280 281 283 285 284 286 285 287 293 297 296 295 294 294 294 295 293 293 295 295 296 296
299 299 299 300 303 307 307 307 305 301 296 289 283 285 284 281 287 287 287 288 288 288 286 284 285 289 283 284 282 285 287 284 283 286 283 286 282 292 288 287 294 293 295 296 289 289 293 285 287 294 297 297 301 302 299 302 300 298 296 301 294 286 285 286 286 278 280 280 281 281 284 283 286 290 287 287 294 297 295 294 294 293 292 294 295 294 294 294
299 297 291 298 305 307 307 306 302 297 290 284 284 282 285 287 289 286 289 290 287 286 284 281 279 286 287 283 284 285 286 282 286 283 283 283 281 289 289 292 290 295 295 296 290 290 288 285 286 291 294 292 298 299 289 295 298 297 299 297 297 295 288 287 287 286 288 282 280 280 279 282 288 290 292 292 290 294 297 291 294 295 294 293 292 294 294 294
295 290 288 300 305 307 307 304 297 292 286 281 284 281 287 284 289 290 290 291 284 282 282 281 280 282 283 284 285 283 287 286 285 284 285 286 285 293 290 295 292 294 296 297 293 295 287 288 285 287 291 296 290 295 293 296 291 290 294 291 292 290 292 294 292 287 285 283 282 282 280 284 287 291 294 297 297 294 295 294 294 295 294 293 294 295 294 294
289 288 288 302 304 306 305 299 289 284 284 283 284 283 284 284 289 289 289 288 287 288 284 282 281 280 281 283 285 287 283 285 286 284 284 285 286 283 292 293 295 292 296 294 291 292 286 285 285 285 286 289 290 295 298 299 298 295 294 292 294 290 288 286 284 290 284 287 278 282 282 287 283 291 296 297 299 299 296 295 295 295 295 294 293 292 293 294
289 283 287 301 304 304 296 286 284 286 283 282 282 284 285 294 288 288 287 286 285 284 286 284 280 279 279 282 285 287 284 282 284 285 285 284 289 288 291 297 295 296 292 287 288 293 291 286 286 284 287 289 290 291 291 290 296 297 298 294 297 294 293 289 284 286 285 285 282 277 279 284 288 289 294 295 297 298 296 292 293 294 295 295 294 293 292 293
285 284 297 301 304 300 291 284 286 285 282 285 287 285 288 288 286 287 285 285 284 283 282 282 283 280 282 281 282 284 285 283 285 284 286 286 287 291 293 296 297 295 295 289 292 291 294 285 285 284 285 286 290 291 292 291 293 292 292 292 296 293 294 292 291 291 288 287 286 281 280 281 284 285 285 289 289 288 287 289 295 293 293 293 293 293 292 292
289 287 291 299 302 298 287 279 280 282 283 285 286 286 289 287 286 284 284 285 283 283 281 281 283 285 283 282 280 282 286 282 286 287 285 288 286 293 294 295 297 293 292 291 288 294 285 286 285 283 282 283 286 288 288 289 291 288 292 293 296 297 296 289 286 288 288 288 288 287 282 288 287 283 285 286 287 290 292 291 289 293 294 294 294 294 294 293
289 290 289 292 298 294 283 285 283 282 283 283 283 282 283 285 287 287 285 283 283 282 282 282 283 285 284 286 286 286 285 285 284 286 288 286 287 289 292 295 297 295 295 296 294 296 288 285 284 281 280 278 276 278 280 283 284 287 288 293 295 295 294 289 289 287 286 289 288 286 287 291 287 285 287 286 286 287 287 288 287 290 293 295 294 294 293 292
283 279 285 285 288 287 287 287 286 284 283 282 281 282 284 282 285 287 287 284 284 283 282 284 283 287 285 285 283 283 283 286 284 283 284 284 285 287 291 292 293 296 296 296 295 294 285 285 286 285 283 283 284 284 286 289 287 285 288 291 293 296 297 295 293 289 287 288 287 289 291 287 285 286 285 285 284 288 290 287 289 291 290 290 289 290 291 291
285 282 282 279 284 285 285 286 285 285 282 284 279 283 281 283 284 284 287 282 284 282 282 282 283 282 281 282 283 283 283 282 284 284 283 284 285 287 292 291 293 293 295 295 296 290 285 284 285 286 285 286 286 284 286 289 286 288 289 290 294 294 295 292 290 288 293 288 284 290 292 288 286 287 287 286 286 285 287 288 289 289 290 291 292 291 292 291
277 281 286 289 282 280 282 282 285 284 284 284 280 283 282 281 282 281 283 283 283 282 281 281 283 282 284 282 284 281 283 282 281 278 284 284 285 287 287 291 292 294 294 294 296 291 285 284 286 286 286 287 287 287 288 288 290 289 289 291 291 294 294 290 291 294 293 289 287 291 292 290 291 287 288 288 288 289 290 290 291 291 290 291 292 292 292 293
283 283 285 288 280 282 283 285 285 284 284 284 283 283 281 281 280 281 280 281 280 281 280 274 280 281 284 282 281 281 283 278 277 283 282 283 283 284 283 287 291 290 293 293 293 290 288 285 286 287 286 287 286 286 288 288 289 289 290 291 292 292 293 294 293 294 293 291 293 293 290 291 292 291 292 292 290 289 288 288 289 289 290 290 291 292 293 293
280 283 280 285 284 283 285 285 285 284 282 285 279 281 282 281 280 281 281 280 279 279 281 279 279 280 281 281 282 282 283 282 281 280 284 285 283 284 284 286 285 286 287 287 291 292 290 285 289 285 285 285 286 286 286 286 287 286 289 291 292 292 292 293 294 294 291 291 292 291 289 290 293 296 296 295 290 289 288 288 290 291 289 289 291 293 294 294
284 286 287 283 280 281 283 282 282 283 281 281 278 281 282 281 281 282 281 281 279 279 280 280 280 280 280 281 281 280 284 284 285 285 288 287 281 287 285 284 288 283 285 285 286 287 290 285 287 285 282 283 286 285 285 285 285 285 286 288 290 290 288 290 289 293 291 290 292 290 288 290 293 295 297 294 289 289 290 289 289 289 289 289 290 292 294 294
286 286 289 285 279 284 281 281 281 281 277 282 282 281 281 281 281 282 280 282 281 282 282 281 280 280 278 281 280 282 284 287 288 288 291 290 290 290 289 290 288 286 283 284 286 285 286 285 284 284 281 281 285 286 285 284 285 283 284 287 289 291 292 293 294 295 294 294 290 288 289 296 293 293 294 295 295 293 291 291 290 289 289 291 292 293 294 295
Wind_Speed
21 21 20 20 20 20 19 18 18 17 16 17 16 15 14 14 13 13 12 12 12 12 12 10 10 11 11 11 11 10 9 6 7 10 13 8 7 16 4 12 6 7 7 1 1 1 2 2 3 0 1 1 2 1 2 1 0 1 3 4 5 4 5 4 4 3 1 1 3 3 4 5 3 0 1 3 7 4 2 4 2 4 5 1 1 10 16 15
22 21 21 20 20 20 20 19 18 18 17 17 16 15 15 15 14 13 12 12 12 13 12 11 11 10 11 11 9 11 9 7 11 12 18 6 14 14 13 10 12 5 6 1 3 2 5 5 4 3 4 2 0 1 1 2 0 3 1 4 10 5 4 3 2 2 1 4 4 5 4 6 6 6 3 4 1 3 4 2 3 4 5 6 7 12 16 14
22 22 21 21 20 21 21 20 19 18 18 17 17 16 15 14 14 12 12 12 12 12 12 12 12 11 11 12 12 12 9 6 8 19 12 13 14 15 14 15 10 10 6 4 3 4 4 6 5 4 2 3 1 3 1 2 2 3 4 6 7 4 2 4 3 5 3 3 5 4 4 4 3 4 2 3 6 2 9 6 1 2 3 5 7 11 14 14
23 22 22 21 21 22 21 20 20 19 19 18 17 16 15 14 13 13 12 12 12 13 12 12 12 11 10 12 13 10 7 1 15 8 7 19 18 16 15 16 14 9 6 5 4 4 2 1 2 6 2 3 2 1 3 4 3 2 3 6 5 4 3 5 4 5 4 4 2 4 1 2 2 3 3 5 7 4 4 7 12 10 10 9 11 13 13 14
23 22 21 21 22 22 22 21 21 20 19 18 17 17 15 14 13 13 12 13 12 13 13 12 12 12 11 11 12 9 6 5 6 10 13 22 20 20 17 15 14 7 9 5 2 1 0 0 3 3 3 4 1 1 3 4 3 2 9 8 4 1 3 6 7 3 2 3 3 1 5 4 1 0 3 12 10 8 11 12 8 12 14 15 14 13 12 14
23 22 21 21 22 22 21 21 21 21 20 19 18 17 16 15 14 13 13 13 12 12 11 12 12 12 11 13 11 10 10 13 2 4 20 25 24 21 19 16 14 8 7 7 7 3 4 3 4 4 2 3 4 6 3 6 3 3 5 4 5 5 4 1 1 3 2 1 1 2 2 2 5 2 4 9 10 6 3 4 9 9 17 17 16 15 13 14
23 22 21 21 21 21 21 21 21 21 21 20 19 18 17 17 15 14 13 14 13 12 11 11 11 11 11 14 10 12 15 7 1 6 8 23 27 25 21 16 12 8 9 8 8 6 5 4 5 4 3 4 4 6 4 4 3 5 8 2 7 6 9 7 6 0 1 4 2 2 1 3 4 4 2 5 7 5 3 7 10 8 9 10 12 14 18 18
23 22 21 20 20 20 19 19 20 20 20 20 19 18 18 18 16 15 14 15 13 13 11 10 10 10 10 7 8 8 11 14 9 6 14 20 21 24 21 11 10 9 11 14 12 10 7 8 8 3 5 8 3 8 3 4 2 7 8 3 3 4 7 8 8 5 2 4 1 3 1 4 6 4 1 6 10 6 3 3 7 10 11 11 14 15 14 14
23 22 21 20 20 19 18 19 19 19 20 20 19 18 18 18 17 15 15 16 15 14 13 10 9 9 12 5 9 8 17 11 5 3 12 17 18 16 18 9 10 12 11 10 10 11 9 7 5 6 5 6 3 6 3 5 6 5 12 3 2 4 4 7 5 5 6 2 1 2 4 4 6 2 3 8 7 6 2 6 10 12 12 14 15 16 15 15
24 23 21 21 20 19 19 18 18 20 20 21 20 19 19 19 17 16 16 17 16 14 13 11 9 9 10 5 6 17 3 6 3 5 10 13 15 15 18 16 14 12 11 12 9 10 12 5 8 4 5 1 4 4 4 8 5 6 10 8 7 7 6 1 7 6 6 4 4 5 5 5 1 3 9 4 7 3 3 5 10 14 14 14 13 13 13 15
25 23 22 21 20 20 19 19 18 19 19 19 20 19 19 19 17 16 16 17 16 14 12 12 9 8 9 4 10 16 2 10 5 8 9 10 11 13 16 13 16 12 13 10 12 14 8 7 9 4 2 3 1 2 3 3 4 4 5 4 7 9 7 4 4 6 2 3 5 5 6 4 3 0 12 3 3 6 6 6 9 12 12 13 13 13 12 12
25 24 22 21 20 21 21 21 20 18 18 19 20 19 18 18 17 16 16 16 16 14 12 10 12 7 5 7 12 8 3 4 2 10 13 13 12 14 12 8 10 11 12 11 11 6 8 7 8 6 6 3 3 2 2 3 1 4 5 9 6 8 10 6 7 5 5 5 5 4 1 4 3 15 7 5 3 5 7 8 10 11 11 12 11 10 9 13
25 23 22 22 21 21 22 22 21 20 20 20 20 19 18 16 17 17 16 16 16 14 12 10 8 7 7 12 10 3 0 5 5 6 9 10 4 3 6 6 9 7 9 10 7 4 5 8 8 7 3 5 4 5 1 3 3 2 4 4 5 5 7 11 4 2 7 4 9 5 8 8 13 17 3 7 5 4 5 6 8 9 9 10 10 11 11 9
25 23 22 22 21 22 22 22 22 21 21 21 20 18 18 17 19 18 17 16 14 14 12 11 5 7 10 7 1 1 4 1 3 4 14 9 11 3 4 2 1 2 3 5 2 3 5 5 7 4 0 4 3 2 4 4 2 5 5 1 8 6 8 5 6 5 9 2 9 6 10 10 12 6 5 6 7 8 8 8 9 9 9 9 10 11 12 13
25 23 22 22 21 22 21 22 22 22 22 21 19 18 17 17 17 19 18 16 16 14 12 8 5 6 8 6 2 4 8 4 6 6 9 14 11 6 5 5 4 4 4 8 5 1 3 7 6 4 2 1 5 2 2 1 1 3 4 13 4 10 1 4 6 11 12 1 5 6 8 12 14 7 6 8 7 8 11 9 11 11 10 10 10 11 11 13
25 24 23 22 22 21 21 22 22 22 22 21 19 17 16 16 16 18 19 15 15 16 7 8 8 4 1 5 2 3 4 7 9 9 6 12 13 11 8 9 8 7 8 2 2 3 1 5 7 3 4 2 6 5 2 2 3 4 10 5 9 7 6 1 5 7 13 4 2 10 6 3 8 7 8 7 11 12 12 10 10 12 12 11 10 11 11 10
25 24 23 22 22 21 21 22 21 21 20 19 18 17 16 15 16 17 16 14 11 5 7 5 7 5 4 1 2 4 3 3 8 7 5 6 11 13 12 11 4 7 7 4 1 6 0 7 1 1 1 5 5 6 6 9 10 11 7 8 2 8 3 9 3 5 6 7 6 5 7 12 6 2 1 1 4 6 9 11 9 9 10 11 10 11 12 12
25 24 23 22 22 22 22 22 21 20 19 18 17 15 14 16 14 12 6 6 3 5 2 2 5 4 10 6 5 6 4 4 10 10 12 2 9 14 14 5 4 12 11 6 1 10 2 8 4 9 4 4 10 10 13 20 20 12 8 7 5 2 8 8 6 4 6 6 10 9 11 16 14 10 6 2 0 7 11 11 8 9 9 10 10 11 12 12
25 24 23 22 22 23 23 22 22 21 19 18 18 15 11 9 6 4 5 4 7 7 8 7 8 12 9 14 8 5 3 5 5 14 10 10 7 12 5 4 16 16 9 12 4 11 1 5 2 7 14 12 17 20 22 9 8 10 12 6 4 6 7 11 9 3 16 10 11 11 13 16 16 13 9 7 4 7 10 8 6 8 10 11 12 12 11 12
25 23 23 22 22 23 22 22 21 21 22 16 11 7 7 6 4 3 4 4 9 6 3 16 16 1 5 4 8 1 1 2 8 7 11 9 11 9 9 9 7 11 15 13 8 12 7 12 15 17 19 23 21 20 16 8 5 3 5 8 11 11 8 6 8 4 5 5 12 11 10 16 16 14 13 13 5 3 5 7 9 8 9 10 11 11 12 13
24 23 23 23 23 22 23 23 21 21 23 12 10 10 9 15 16 12 11 9 8 5 2 12 16 3 1 1 2 7 7 1 1 10 12 10 11 16 9 11 12 11 13 15 15 5 9 13 17 21 21 19 18 14 12 10 5 2 7 8 10 11 13 7 8 5 7 9 6 9 11 18 18 14 13 9 5 9 10 9 9 10 9 8 10 12 12 13
23 23 22 23 23 23 23 23 22 18 23 10 12 12 4 12 1 2 9 7 3 3 3 8 10 1 1 2 1 3 6 4 7 7 5 16 11 17 8 13 16 15 13 11 9 12 14 19 19 22 14 8 10 14 14 16 13 6 5 7 8 11 7 3 6 5 6 7 12 5 12 16 18 16 15 10 9 10 11 11 12 11 10 10 10 12 13 9
23 22 23 23 24 23 23 24 22 23 13 10 12 15 5 5 2 7 6 5 4 3 1 4 9 8 2 1 2 1 5 6 10 8 10 11 16 20 15 14 16 14 13 13 16 14 15 17 24 16 10 10 11 13 14 12 10 10 7 7 12 7 8 8 8 3 4 8 2 9 12 12 15 14 13 9 8 7 11 11 11 9 12 13 15 14 13 14
23 23 23 23 23 23 24 22 22 19 16 14 12 14 3 7 8 10 9 4 2 4 3 1 3 4 7 4 3 2 6 2 4 14 2 11 14 11 13 20 20 15 17 18 19 18 20 16 18 10 11 15 14 12 15 13 13 12 12 8 7 6 11 10 4 3 0 4 2 1 5 8 11 13 11 8 8 9 12 7 9 9 10 13 12 10 13 16
23 23 24 24 24 24 23 22 14 12 12 11 11 7 4 9 9 8 9 2 2 2 2 2 2 2 3 2 3 5 1 1 4 2 4 1 12 11 12 9 11 17 17 22 19 16 16 4 13 12 19 20 17 13 15 13 12 13 15 14 7 3 1 5 3 3 2 6 6 5 4 15 7 14 18 11 4 9 10 10 13 13 12 12 12 14 11 11
24 23 23 24 24 24 25 14 10 12 15 14 8 8 2 3 4 2 8 3 3 2 4 9 4 7 4 2 3 3 5 6 7 6 5 5 5 4 7 11 9 14 20 20 17 8 12 11 21 23 17 11 13 14 15 14 13 11 15 16 8 6 4 2 2 5 7 13 4 6 10 13 2 12 13 12 13 14 10 11 15 14 13 14 14 14 14 14
24 23 24 24 26 26 17 8 10 15 15 7 9 10 4 4 7 5 7 2 4 5 8 2 7 3 4 6 8 8 6 7 5 3 5 3 6 1 4 11 7 6 10 7 4 11 9 12 14 17 18 16 16 17 14 17 12 15 7 9 10 11 10 6 4 8 8 2 2 7 11 14 11 12 5 8 12 12 15 12 12 14 16 17 15 15 15 15
24 24 25 24 25 26 7 9 16 14 11 8 10 9 8 5 9 7 2 5 5 9 6 3 4 0 2 6 12 10 1 5 9 5 5 6 5 5 4 6 13 18 16 13 22 8 22 19 20 21 19 17 19 20 18 19 15 5 7 10 14 14 8 3 4 5 3 1 7 7 1 5 13 6 1 5 6 8 15 13 12 15 18 20 17 14 14 15
24 24 25 24 27 26 7 11 14 13 6 14 12 11 9 10 8 7 3 5 0 3 2 8 1 3 4 7 9 10 3 1 3 3 2 8 3 1 5 8 11 12 17 23 20 14 11 20 23 22 18 18 16 17 12 16 16 5 9 7 5 9 6 2 1 3 4 2 13 12 9 10 20 5 7 3 8 14 12 13 15 18 21 20 15 12 12 11
24 24 25 26 25 13 4 3 11 7 11 14 14 13 13 13 5 4 5 6 5 3 3 3 9 11 10 12 10 8 9 1 2 3 2 4 3 4 3 1 5 9 13 14 13 4 1 6 11 11 14 12 16 10 15 22 10 8 10 10 6 6 2 2 4 1 1 10 17 15 9 11 17 8 12 11 16 14 7 7 8 15 17 15 12 12 12 12
24 24 26 27 12 7 9 8 8 11 12 14 17 16 13 4 5 5 8 4 6 0 4 7 6 12 15 17 9 6 6 4 1 3 4 3 3 5 4 5 6 7 8 13 15 7 3 6 8 3 9 3 11 9 7 9 11 14 4 7 9 1 4 3 2 2 5 10 18 10 12 8 13 15 9 14 2 12 14 12 14 16 18 15 12 13 14 11
23 26 27 19 10 9 13 11 11 12 14 17 17 12 11 8 2 6 4 1 6 7 9 7 8 12 18 16 11 14 11 3 2 6 8 5 5 7 7 8 7 7 9 15 16 5 5 11 5 8 11 18 15 13 5 11 9 9 9 12 13 4 5 9 3 8 8 13 2 10 13 5 17 21 3 8 7 4 11 14 17 18 14 10 11 12 10 9
24 23 29 15 14 6 5 11 11 12 17 18 13 9 7 6 9 8 2 4 2 5 6 8 12 14 13 11 8 9 4 9 4 8 7 1 5 8 8 9 7 2 4 14 14 16 8 5 15 11 8 12 16 15 9 10 11 12 14 13 14 8 9 11 10 1 4 9 2 3 14 16 16 12 7 7 9 10 10 13 12 8 10 10 8 8 7 8
24 26 17 11 9 7 10 13 12 18 19 15 14 9 5 5 5 6 4 2 2 1 10 8 11 9 14 11 9 11 5 4 9 6 9 3 6 11 11 11 10 10 3 7 15 15 12 13 15 18 12 16 19 18 20 15 19 18 13 18 16 14 8 17 12 18 13 7 2 2 4 7 16 8 4 5 7 9 10 10 10 8 8 7 5 3 5 5
26 19 11 8 6 8 14 14 14 17 15 14 11 10 14 9 2 8 6 3 1 3 4 9 14 15 12 8 2 10 2 4 7 8 9 8 9 10 13 11 12 6 2 5 7 5 22 8 9 22 9 23 21 17 18 13 7 7 4 1 10 14 3 4 1 3 3 3 4 3 8 3 8 3 7 4 7 9 4 8 9 10 7 6 6 6 7 8
19 8 12 7 10 9 14 12 15 19 15 13 10 10 13 5 4 2 6 5 3 6 8 11 9 10 7 7 2 12 6 3 8 8 3 10 6 11 8 4 7 12 5 6 2 12 5 15 7 13 6 22 19 14 12 18 15 11 9 14 10 3 8 6 3 0 4 4 6 2 7 12 6 14 15 9 4 9 5 9 8 10 6 5 7 8 6 7
9 11 6 7 9 11 13 12 13 14 13 13 11 10 4 1 5 6 5 8 5 14 9 12 7 8 9 8 6 11 7 4 7 7 6 6 6 8 5 7 8 7 9 5 7 4 10 8 14 20 16 16 20 16 14 21 6 10 15 10 5 6 4 5 7 1 2 6 5 8 14 10 2 14 3 12 12 11 9 11 12 10 6 7 11 9 8 9
9 7 8 6 7 11 15 13 13 12 11 11 12 5 0 3 2 4 4 6 6 5 7 5 3 8 7 8 7 9 5 8 6 6 5 11 5 13 13 4 10 12 9 9 1 6 2 2 4 5 16 9 11 13 9 11 1 12 12 13 14 7 9 1 3 5 6 4 4 4 10 8 11 17 1 2 14 16 10 10 8 10 10 13 12 9 8 7
8 9 5 1 5 11 13 13 12 11 9 8 9 6 4 1 1 3 5 8 3 6 8 4 5 5 4 8 4 5 9 9 10 9 7 4 7 7 14 11 6 11 11 7 5 5 5 7 3 3 10 4 8 13 17 14 2 3 4 10 0 2 4 12 7 2 5 8 3 5 4 10 12 12 7 9 6 12 14 4 12 13 12 11 9 9 10 9
10 6 2 1 4 10 12 13 10 9 4 11 8 2 3 3 2 1 3 10 2 3 2 4 1 5 3 3 8 7 10 10 10 8 6 4 6 4 11 9 9 11 13 13 8 5 7 2 9 0 0 13 15 13 18 19 16 5 6 6 4 3 2 0 2 6 5 3 7 7 9 9 9 8 13 19 16 12 13 12 8 8 7 9 10 11 9 9
2 6 2 1 6 9 11 10 8 9 7 3 3 2 3 3 3 2 3 5 4 1 3 5 5 4 5 4 3 4 3 7 7 6 5 2 9 2 6 10 10 12 7 9 2 5 5 3 6 5 6 12 1 4 13 24 24 19 16 17 19 16 13 15 12 1 4 9 6 8 17 10 4 7 16 19 18 18 13 14 13 9 9 9 9 8 8 8
7 6 3 4 7 11 10 8 2 2 3 6 7 3 4 2 4 2 3 2 6 3 3 6 2 5 2 3 1 4 5 4 5 4 4 8 8 7 1 9 6 11 12 8 8 3 1 3 0 10 10 11 2 1 1 7 8 12 17 19 18 13 10 12 16 11 2 5 3 1 4 12 7 7 11 11 13 15 12 5 8 6 9 10 9 9 9 10
5 6 3 6 3 9 8 3 4 5 3 2 5 4 2 2 3 0 3 1 3 1 2 2 3 5 1 3 2 2 3 3 7 9 3 6 3 4 3 11 7 3 6 1 5 2 3 2 2 1 5 3 1 1 4 1 5 3 5 1 14 17 17 15 12 10 14 6 7 4 6 7 2 2 4 7 5 5 4 5 9 6 7 8 10 9 9 8
5 5 6 5 4 6 5 4 6 6 6 1 3 4 2 2 2 2 1 0 2 1 3 3 3 1 3 1 2 5 3 2 1 4 4 1 3 2 4 13 10 7 10 7 8 7 3 3 1 1 4 1 3 5 3 1 1 2 10 10 15 13 15 2 6 3 8 13 13 12 17 12 5 2 2 0 4 6 7 7 5 6 6 8 9 9 7 6
7 4 6 4 5 5 5 1 6 9 9 10 6 5 3 4 2 2 2 0 1 3 3 1 2 5 4 2 3 3 1 1 2 2 0 2 2 1 5 4 11 8 6 7 11 7 4 2 3 4 10 11 9 10 8 9 8 2 1 10 12 20 17 7 12 6 12 11 12 9 11 9 3 2 2 0 0 4 4 5 4 5 5 8 8 7 6 4
2 7 2 4 4 2 3 1 1 7 10 11 8 2 4 5 2 2 4 1 0 2 3 5 3 7 5 5 4 2 1 1 1 3 3 1 1 2 3 5 3 4 6 14 12 10 3 4 6 6 5 3 4 5 5 4 4 11 13 14 17 21 24 19 13 14 18 11 14 16 18 3 4 3 4 4 3 8 8 5 6 5 5 5 4 4 2 2
1 5 5 6 3 2 3 1 3 1 8 3 8 5 7 7 4 1 1 2 2 2 2 1 3 5 1 6 5 4 2 1 3 2 3 2 4 3 4 6 4 4 6 11 12 6 4 5 11 12 11 7 3 3 5 8 10 10 16 22 21 23 23 22 17 18 16 11 14 12 20 11 11 8 6 5 5 4 4 5 5 4 5 5 3 2 4 3
3 1 2 1 3 9 9 3 5 5 4 4 2 2 8 11 6 6 2 2 0 2 4 3 2 2 10 6 6 5 5 2 1 2 1 0 1 2 1 2 0 2 7 5 10 6 5 7 7 12 13 10 8 3 4 4 8 8 11 12 19 20 21 22 22 22 20 15 19 22 21 21 14 4 6 8 8 10 10 11 9 3 0 0 1 3 4 6
3 2 2 1 4 2 2 8 11 10 8 3 3 3 7 7 5 2 3 1 2 1 2 3 3 4 5 3 4 4 5 3 2 2 2 2 2 1 1 2 4 13 4 5 8 1 4 7 4 10 12 9 8 6 2 5 5 8 13 13 10 13 20 24 25 23 16 12 16 8 7 15 7 7 10 10 10 9 4 2 1 2 5 5 4 4 6 8
3 5 3 2 5 6 10 11 9 11 8 5 5 4 5 6 7 1 1 3 3 1 1 6 3 3 3 4 4 6 6 3 3 4 4 3 0 0 1 2 1 3 8 6 3 2 6 6 10 4 8 10 8 8 5 5 3 8 11 14 14 12 10 13 14 14 5 7 9 9 6 13 7 10 10 6 4 2 1 2 6 7 5 5 5 7 8 10
2 1 4 9 7 3 7 4 8 11 8 2 4 4 5 6 8 4 2 2 6 5 3 6 6 4 2 4 2 3 6 6 6 7 9 7 4 6 4 3 4 2 3 4 5 9 4 3 4 5 8 10 8 9 9 7 5 6 9 14 15 15 13 10 11 10 11 18 19 12 9 13 5 10 7 2 4 5 6 5 5 5 5 5 7 9 10 11
3 2 5 6 6 2 6 3 4 7 5 5 4 5 4 7 3 4 3 1 2 5 8 7 5 6 1 1 3 6 8 8 9 6 11 8 2 6 3 6 7 4 2 1 1 1 3 3 5 8 9 12 10 14 12 6 2 8 14 14 16 17 13 11 13 12 12 8 12 12 16 16 2 9 9 10 8 6 6 7 7 6 5 8 11 12 13 14
Wind_Direction
217 221 222 221 220 220 218 215 214 215 219 221 223 227 227 225 230 231 232 229 228 232 231 220 212 212 211 213 209 200 159 173 194 212 215 208 197 235 222 213 222 158 158 113 31 67 213 200 223 318 80 119 249 122 244 358 175 94 167 145 239 202 214 218 193 190 192 236 268 225 223 141 168 168 179 71 26 62 55 63 349 23 23 301 331 139 141 149
213 218 221 221 220 219 219 217 214 215 217 219 221 224 227 226 225 230 232 230 225 230 229 226 220 211 208 213 211 172 158 185 214 218 221 150 219 226 238 235 221 175 137 151 170 206 178 210 218 125 131 182 318 163 132 246 125 175 146 143 231 180 236 179 215 238 45 274 233 234 184 175 204 141 208 112 186 130 80 2 17 50 12 53 100 126 138 149
209 214 219 221 220 219 219 217 215 215 215 217 219 221 225 225 223 222 228 230 225 229 228 224 221 218 207 200 214 166 150 212 236 234 213 196 211 227 232 241 236 195 176 180 188 160 188 200 184 114 185 163 250 182 134 249 137 236 137 216 231 195 246 261 258 267 203 241 259 208 238 165 217 149 150 155 166 190 161 155 337 147 141 130 128 138 146 156
206 209 216 220 220 220 219 216 215 214 213 214 216 217 220 222 221 220 223 225 226 228 228 224 218 215 206 196 179 172 167 123 239 225 176 198 204 222 223 232 234 208 192 216 146 152 161 311 184 158 152 191 253 100 140 242 135 250 165 218 224 198 227 264 258 263 243 175 198 182 51 164 244 209 145 145 121 246 253 216 166 192 168 160 158 154 155 160
206 204 211 218 219 220 219 216 214 214 213 212 212 214 215 219 219 219 218 220 222 223 221 219 217 213 201 185 169 151 128 222 250 191 182 193 197 210 219 225 228 204 198 199 141 122 69 222 182 176 133 206 203 94 247 228 205 125 216 224 180 121 179 247 247 236 247 236 138 158 138 223 93 11 162 156 174 202 208 210 218 170 162 156 164 170 163 167
207 202 206 215 218 218 217 215 213 213 213 211 211 212 212 215 217 215 215 216 212 211 212 211 210 211 197 171 164 182 149 218 174 189 189 179 189 200 211 218 222 195 192 196 187 150 179 227 161 187 197 147 194 176 249 200 181 230 265 247 219 220 215 245 248 231 214 61 114 134 213 103 160 220 203 186 196 224 212 175 188 170 168 170 162 159 170 175
207 202 202 211 215 217 216 214 212 212 211 211 211 211 211 213 215 210 210 213 206 205 208 209 205 203 195 169 189 187 196 239 331 221 176 183 179 191 198 205 200 177 186 193 194 178 178 196 165 194 159 204 236 199 238 197 211 217 247 161 223 209 224 226 240 98 257 146 223 203 55 176 175 204 185 194 241 227 230 174 177 172 150 142 154 175 175 182
207 202 200 205 212 214 215 212 210 210 210 211 210 210 210 212 211 207 207 208 201 202 200 204 202 199 183 159 163 216 213 217 198 257 169 177 187 182 181 181 172 176 186 197 185 186 152 195 186 145 210 189 206 185 208 204 186 213 252 213 257 210 231 236 240 224 227 224 207 105 144 232 194 193 117 230 234 236 238 147 137 139 151 163 167 178 185 188
206 201 198 201 207 211 211 211 208 208 209 209 209 209 209 210 208 205 204 206 200 199 202 197 200 208 179 160 204 228 221 205 219 124 156 171 180 183 163 172 177 175 192 196 198 187 159 201 179 176 208 187 218 193 194 170 259 208 236 202 248 227 234 236 231 203 205 222 258 183 250 264 248 318 262 235 239 220 163 117 143 146 157 173 183 183 185 191
205 200 198 198 204 207 209 209 207 206 206 207 206 207 208 208 206 202 200 203 200 201 203 204 196 200 189 152 199 232 256 130 321 116 145 168 172 174 179 172 169 177 183 197 191 177 188 172 169 143 116 151 155 216 153 188 230 202 231 230 241 243 240 236 199 208 196 200 199 193 233 247 275 132 259 246 232 144 112 122 151 154 176 184 186 190 194 192
205 200 197 197 200 203 206 208 207 203 202 205 207 208 208 206 203 200 199 199 199 201 203 204 193 165 210 189 193 231 46 183 187 116 118 139 158 172 189 178 176 178 182 191 197 193 176 150 142 124 44 197 76 303 203 221 222 240 217 265 256 257 240 217 212 221 131 254 188 184 241 280 288 160 233 209 233 168 146 145 161 172 180 188 193 192 196 202
202 199 197 196 197 201 204 206 206 201 199 202 204 205 208 207 199 197 198 198 193 194 199 195 187 187 198 218 221 219 337 11 253 143 151 150 172 188 179 175 187 180 175 183 204 199 176 171 140 151 187 137 203 337 285 331 346 261 234 256 252 245 247 225 209 216 168 242 157 158 318 267 222 234 214 198 140 160 158 165 175 184 186 189 192 196 200 208
198 197 196 196 196 199 202 205 204 202 199 200 200 202 202 206 206 193 194 197 197 186 176 178 186 195 193 227 237 206 150 354 312 156 135 164 159 163 171 176 193 186 183 173 183 209 182 156 155 170 158 127 173 170 242 331 280 267 249 226 285 261 243 230 210 175 168 231 162 135 255 222 235 242 178 207 150 137 156 175 186 191 191 193 190 195 205 207
196 196 195 196 196 198 200 202 201 200 200 200 197 197 198 200 202 195 190 193 187 186 171 178 173 189 209 245 144 196 174 242 43 187 161 145 143 130 90 47 75 65 71 111 115 171 146 159 149 137 87 125 178 324 15 16 329 222 229 161 227 216 244 213 185 173 184 178 177 147 242 258 253 250 228 229 193 166 190 195 194 196 195 195 195 198 203 207
194 194 193 193 195 197 197 200 199 200 199 198 196 194 195 198 202 200 189 189 180 174 167 167 164 158 221 251 288 220 131 102 154 191 165 153 143 121 137 121 100 90 109 126 141 218 159 113 110 158 192 235 74 56 355 37 358 296 161 230 197 214 309 235 201 166 194 220 209 130 247 249 261 265 236 215 208 194 211 203 196 198 198 197 198 202 207 213
192 193 192 192 194 194 195 197 199 198 198 197 193 188 189 194 198 201 192 182 180 166 146 149 195 189 116 241 218 6 151 158 187 188 204 155 160 158 153 126 115 107 114 9 106 129 134 138 179 167 114 73 173 163 153 26 252 240 230 236 214 216 228 327 224 197 200 152 257 191 232 289 289 262 238 219 201 201 213 215 203 201 201 198 200 203 210 213
191 190 190 191 193 194 193 195 196 196 195 194 189 185 185 189 190 195 202 183 169 154 139 161 162 182 224 312 74 192 179 176 152 168 198 203 158 138 122 119 118 108 100 65 339 137 38 169 7 28 32 155 169 160 200 238 240 232 212 233 226 208 142 230 9 215 217 160 210 251 236 239 232 281 351 1 215 225 228 225 216 207 205 204 202 205 208 210
190 188 188 190 193 194 193 193 193 193 192 190 185 179 184 185 185 177 143 183 177 129 80 344 134 108 274 265 212 191 164 145 161 163 181 188 144 155 146 130 113 126 122 105 309 173 260 185 154 197 155 147 168 177 196 214 213 208 204 223 239 263 197 212 181 230 190 230 209 213 229 244 247 250 268 245 223 198 225 230 219 209 210 212 211 209 210 211
188 187 186 189 193 194 193 192 192 190 188 185 178 168 144 111 103 63 109 120 132 132 173 181 164 196 201 218 171 13 84 127 111 154 174 149 189 160 138 120 138 135 155 157 243 168 176 79 153 163 200 183 195 194 205 196 99 199 199 211 211 214 217 215 218 238 184 208 228 209 215 241 245 251 249 250 172 191 225 239 246 226 216 213 213 214 212 214
187 185 186 188 191 192 191 188 189 190 184 183 166 149 101 150 141 180 126 197 210 207 72 172 186 73 50 69 126 145 48 157 141 197 164 165 146 156 145 151 156 153 151 185 160 199 148 183 193 197 202 200 199 201 208 216 41 98 142 193 216 221 232 221 232 214 189 208 226 220 226 240 245 238 241 238 211 200 238 241 232 231 224 221 219 217 218 217
185 184 184 188 189 189 187 184 185 189 182 163 149 139 181 168 169 192 169 191 198 11 121 169 188 172 78 72 76 138 124 37 166 180 190 154 165 149 174 153 162 178 187 170 166 129 188 198 209 210 209 196 196 197 206 222 206 148 194 199 218 217 231 204 223 214 203 190 241 213 226 241 245 244 242 238 210 239 232 229 232 230 229 229 223 224 222 224
184 183 183 185 187 188 186 184 184 178 173 156 158 181 200 191 107 87 127 153 204 284 11 178 190 163 1 19 216 157 104 142 210 206 188 167 175 173 185 173 174 188 177 162 134 168 196 207 211 213 205 197 199 200 203 205 207 207 206 200 222 223 232 266 236 209 215 195 240 206 223 240 248 243 243 231 206 225 230 220 224 214 223 228 227 227 226 223
181 181 183 184 186 184 183 179 180 168 167 164 179 194 194 170 64 129 110 88 180 176 45 141 186 202 166 315 321 315 110 162 186 218 191 185 177 188 159 183 185 182 177 168 175 161 198 213 215 199 177 191 200 197 200 207 215 214 195 187 218 196 177 227 232 179 213 187 197 215 231 245 253 252 249 241 202 232 236 224 230 209 214 221 225 219 219 221
179 179 182 183 181 180 179 175 174 171 181 180 182 190 166 135 151 149 120 163 198 180 181 269 174 186 194 153 223 97 159 209 143 199 177 192 184 165 176 183 181 184 189 179 186 190 201 203 202 157 175 195 197 189 192 196 211 217 212 210 206 178 207 216 217 207 232 239 98 66 284 272 243 255 256 242 217 227 242 239 244 238 227 229 232 230 222 220
178 178 178 180 179 174 179 168 178 182 166 172 197 183 183 157 161 166 100 116 12 311 93 333 111 239 186 33 165 143 195 344 208 149 142 327 181 159 199 179 183 194 181 186 189 199 214 203 126 166 193 196 187 191 199 192 214 214 226 212 187 173 321 228 224 132 243 267 212 157 286 257 213 232 240 237 217 228 236 227 234 233 230 233 236 236 232 236
178 177 178 178 179 178 168 173 187 156 165 190 173 179 143 95 94 123 92 113 225 197 118 213 133 240 133 158 119 132 105 244 199 188 135 153 12 233 158 209 182 187 186 180 194 214 199 160 167 192 196 179 186 205 198 188 209 212 218 205 184 211 228 295 284 179 228 234 223 156 215 264 29 233 228 223 226 227 234 218 230 234 235 234 228 228 229 224
177 178 177 178 179 169 165 192 146 145 170 190 168 146 154 95 73 37 158 325 251 165 162 156 151 267 174 176 147 136 169 229 95 108 162 187 179 200 306 179 178 204 180 169 174 213 170 178 178 193 186 180 189 207 198 187 198 227 204 173 182 209 221 234 224 227 252 22 326 199 200 251 270 248 215 224 228 229 232 226 225 232 235 236 230 224 225 227
175 175 176 174 177 169 175 128 152 171 179 122 122 110 96 85 79 50 42 147 237 115 166 197 206 218 126 175 154 179 164 97 156 211 169 130 125 283 162 263 198 179 175 171 210 133 186 178 188 185 186 186 201 203 187 185 200 221 122 142 201 201 220 180 167 235 263 359 233 225 144 276 251 257 47 144 226 234 238 229 223 233 234 237 233 227 227 228
174 174 174 175 176 174 143 157 163 163 149 140 118 117 99 86 70 118 183 191 114 104 100 128 104 87 102 148 181 205 211 109 162 105 97 119 170 127 199 225 261 212 185 187 195 187 200 186 189 182 179 196 200 201 174 176 209 188 135 111 93 90 79 64 122 187 282 238 242 218 183 216 260 159 185 249 225 227 218 221 224 228 232 233 231 227 228 229
172 173 172 176 171 159 145 131 161 142 136 126 125 110 99 97 92 186 130 241 123 215 170 180 179 178 157 156 193 201 205 236 101 129 111 131 173 79 264 71 284 240 197 207 230 217 154 201 178 181 192 189 194 175 174 190 197 108 113 106 85 64 53 51 74 94 127 238 241 223 193 204 262 202 194 175 221 211 191 229 228 237 242 241 231 223 221 219
168 167 173 169 167 170 127 151 151 138 132 121 117 116 110 64 164 163 189 200 66 73 111 160 162 146 156 162 180 194 222 189 202 156 125 147 116 120 13 251 197 249 193 191 209 228 150 140 169 205 163 125 115 139 174 160 135 136 147 130 112 274 34 28 355 71 212 243 239 201 188 186 233 254 187 210 118 171 185 207 222 232 231 229 224 227 226 216
168 170 164 165 146 144 163 162 150 140 131 129 117 128 132 157 238 195 194 109 180 182 179 146 167 163 168 182 162 171 182 170 186 191 187 163 172 154 189 220 176 211 204 183 197 165 209 184 153 172 179 142 154 150 162 139 160 153 153 144 177 187 150 223 119 222 201 226 274 163 142 210 228 242 171 233 226 225 194 200 216 227 233 226 226 228 223 215
168 167 163 155 146 147 109 131 137 139 136 130 125 139 156 172 195 189 139 183 264 132 190 145 158 164 169 155 194 178 165 189 157 206 185 0 181 219 209 208 270 295 221 187 186 189 202 181 178 181 159 178 158 169 146 169 176 163 164 164 181 176 181 212 198 260 254 254 238 179 165 220 245 274 202 210 238 221 213 222 228 217 222 227 226 228 226 220
166 164 160 152 141 133 135 137 142 143 139 138 138 153 199 184 204 81 116 192 176 15 122 146 142 145 162 176 185 156 169 220 154 184 176 162 174 223 229 239 236 275 179 255 209 179 169 197 202 161 202 161 185 182 173 172 166 189 180 177 189 183 185 201 184 199 208 221 101 200 144 226 215 223 330 246 228 213 220 236 241 235 235 238 237 260 259 245
161 149 129 120 97 133 139 141 148 143 132 144 151 177 189 197 122 162 155 171 263 77 108 137 145 155 177 189 108 182 138 178 157 145 177 173 197 206 217 229 206 166 244 243 210 195 206 215 162 184 158 172 189 183 170 150 168 193 174 183 196 212 76 188 219 110 132 156 154 198 215 210 220 275 285 240 278 280 235 233 245 247 236 238 256 236 229 229
138 128 122 129 133 154 142 146 151 146 149 152 163 187 199 182 183 160 169 159 142 125 129 131 144 162 158 181 154 184 227 109 166 146 201 204 213 204 190 159 171 184 203 218 219 206 175 227 171 171 154 184 182 175 179 150 188 168 161 211 205 97 135 114 38 323 79 53 247 151 288 259 329 286 274 256 216 259 250 244 245 245 234 227 240 240 234 230
109 121 92 132 132 149 141 149 152 152 155 165 179 199 171 10 188 146 135 146 171 135 132 154 178 166 168 183 175 173 198 97 175 166 195 157 253 201 164 203 160 152 196 124 292 294 210 204 175 171 185 191 184 183 166 186 145 141 201 193 82 50 65 165 200 121 119 200 241 175 218 239 115 265 207 243 252 254 230 234 231 240 225 238 239 236 233 237
119 92 95 101 136 141 145 155 141 147 161 171 192 151 1 114 257 133 155 101 105 138 140 164 142 175 182 170 181 164 188 182 176 183 202 165 266 166 185 168 174 192 188 155 251 300 332 182 282 221 180 182 180 163 193 203 33 177 191 151 165 175 206 213 114 199 150 211 234 254 229 244 199 232 278 248 226 248 237 220 223 227 218 222 233 237 238 242
117 115 90 100 133 146 147 150 142 153 167 172 181 132 238 153 191 155 175 122 99 136 146 204 123 209 155 187 170 167 165 194 157 197 179 213 218 176 187 167 194 183 175 155 227 257 293 222 141 241 172 140 146 170 199 188 235 22 76 172 136 98 253 174 197 139 174 229 198 257 135 243 198 235 191 253 226 233 257 217 221 219 210 215 220 223 225 224
129 90 118 158 145 138 139 141 145 154 176 184 166 175 174 129 182 92 137 124 129 103 205 143 206 120 139 180 148 174 194 194 162 193 195 170 218 153 182 181 168 171 166 159 186 287 279 284 190 175 61 144 194 185 192 178 182 158 162 182 187 186 257 140 234 196 161 189 224 247 254 250 231 199 188 216 228 224 228 241 242 244 216 212 212 213 217 216
35 95 51 125 140 137 135 140 152 168 168 15 30 133 136 168 160 82 35 81 112 2 151 134 146 138 175 122 188 162 164 182 179 186 190 194 191 230 219 181 160 154 152 133 153 248 268 283 196 137 173 200 102 162 200 194 179 179 180 188 183 167 163 188 220 113 195 193 209 199 241 248 276 191 190 199 212 234 227 217 228 233 237 219 223 226 217 217
116 101 161 141 144 145 134 132 87 94 112 158 168 159 153 129 66 91 54 10 94 115 45 96 44 116 98 85 107 154 155 184 179 178 219 203 215 235 280 186 196 154 152 178 180 150 157 309 210 179 188 180 144 172 60 25 202 201 186 190 186 182 176 195 202 194 99 234 118 202 293 265 237 178 202 207 207 215 229 171 214 217 240 244 230 220 220 217
61 102 71 76 115 148 129 110 116 129 116 133 97 42 338 51 110 197 97 22 77 83 83 77 186 101 280 137 177 106 155 175 175 200 199 219 279 225 211 197 167 142 97 352 65 238 72 345 283 151 358 340 299 110 53 51 101 157 300 251 175 187 189 198 207 176 194 182 229 248 253 258 287 233 209 233 245 270 288 197 229 190 223 237 240 238 225 220
90 94 87 38 36 110 126 150 144 127 113 95 81 101 356 116 84 56 72 313 124 93 121 134 48 45 144 108 107 150 201 119 244 224 228 198 217 315 226 190 177 186 154 201 165 172 124 198 259 236 125 63 283 334 321 352 166 236 192 198 194 187 194 181 77 60 198 208 206 199 231 248 262 355 319 295 236 231 242 251 223 233 208 228 230 232 228 229
110 62 42 28 32 51 149 339 143 133 140 140 134 124 113 47 33 132 129 153 87 129 101 74 168 142 93 140 79 68 76 200 122 310 34 345 283 331 341 257 200 192 190 147 153 122 175 212 134 245 188 177 198 203 201 197 203 202 278 189 199 189 183 139 201 168 213 202 196 220 244 257 297 358 321 317 153 224 251 258 265 228 218 217 221 221 216 202
159 121 112 53 41 43 49 11 341 139 138 137 114 150 94 103 1 331 108 31 252 105 99 129 49 98 101 116 108 121 190 316 122 176 151 257 290 300 278 327 303 239 180 156 162 138 175 149 166 218 283 307 353 349 342 37 112 190 187 185 193 196 193 197 193 189 206 185 199 211 220 221 213 255 258 242 208 191 203 234 236 234 248 251 267 282 278 251
57 96 156 137 100 44 123 89 108 111 148 171 135 161 137 133 137 75 357 103 285 144 88 64 159 104 148 100 133 135 191 54 334 65 193 169 224 244 302 288 285 293 190 153 161 103 124 198 194 203 214 205 154 275 277 163 187 205 189 199 196 195 194 194 194 204 197 176 221 210 220 206 221 212 218 226 234 256 261 219 238 259 249 231 253 299 313 293
89 238 43 157 133 162 144 198 160 102 73 63 72 47 140 142 152 144 28 2 61 347 112 358 60 123 164 159 136 122 132 117 84 211 40 277 149 277 312 283 282 254 182 184 176 156 163 206 197 180 219 199 171 277 310 226 198 209 224 216 205 200 197 202 208 211 197 199 210 208 206 213 215 201 227 223 202 204 207 215 210 217 247 34 183 223 244 244
101 120 103 23 94 24 34 130 140 129 117 93 77 116 139 132 136 146 147 131 31 348 75 125 166 163 155 102 103 123 151 99 267 256 193 173 207 245 355 318 47 25 351 207 187 256 150 240 179 186 224 209 190 172 306 214 213 213 215 223 227 218 211 206 212 216 207 221 237 231 204 232 198 186 204 220 216 209 226 263 80 190 216 201 204 229 233 238
163 145 165 48 70 92 116 129 137 130 133 137 113 235 143 142 141 138 24 124 127 94 359 104 144 126 140 137 113 129 202 193 166 176 225 156 191 179 203 172 309 30 55 4 258 273 184 233 172 173 223 237 207 162 183 196 237 223 222 226 225 226 225 231 235 234 243 285 267 248 214 241 210 187 206 205 184 151 346 246 210 221 201 181 201 223 235 239
156 125 123 118 95 123 107 95 133 140 133 129 117 186 133 170 161 172 148 165 140 157 144 167 169 131 129 142 135 195 212 201 178 185 181 170 189 209 143 250 131 50 26 30 26 335 251 288 120 150 206 242 204 187 196 188 195 229 236 221 219 223 233 224 224 213 201 218 229 231 236 249 205 180 223 210 129 167 208 224 241 232 207 185 200 223 233 237
68 10 75 90 95 123 116 90 107 107 156 179 134 168 163 191 172 155 115 288 131 145 159 149 167 110 49 104 225 223 218 201 198 200 179 205 136 145 155 138 145 143 124 124 133 336 338 320 171 170 207 233 212 198 199 137 129 245 224 213 209 216 225 231 244 240 232 236 238 226 233 237 169 148 186 225 220 213 215 222 227 242 218 197 202 215 226 232